Starlink 36160

operational
NORAD ID: 66936 Int'l Des: 2025-286 Owner: SPXS Country: US Constellation: starlink
LEOCIRCULAR

Über Starlink 36160

Beschreibung wird geladen...

Live-Position

3D-Globus wird geladen...

Nächste Überflüge

Höhenverlauf

Altitude vs Time

uPlot chart will show altitude changes over time

Zweizeiliger Elementsatz

1 66936U 25286M 25347.58336806 -.01239987 47175-3 -29142-2 0 9991
2 66936 53.1571 46.4166 0000740 61.1562 234.6019 15.96252271 2123
Epoch: 13. Dez. 2025 • Age: 19 hours

Aktueller Status

Höhe 290.4 km
Geschwindigkeit 7.74 km/s
Subsatellitenpunkt 16.70°N, 8.47°W
Startdatum 7. Dez. 2025
Alter 6 days
Typ internet

Technische Details

Klassifizierung Payload
Masse 575.00 kg
Trockenmasse 530.00 kg
Gesamtmasse 575.00 kg
Länge 0.30 m
Durchmesser 4.10 m
Spannweite 29.00 m
Form Box + pan
Hersteller SPXS
Bus-Typ Starlink V2MO
Phasenstatus In Orbit
Besitzer/Staat SPXS/US

Große Konstellationen

Loading constellations...